Location: Clignon
(44.1961°N, 6.6394°E)
Time: 06:30:12
(UTC+00:00)

Daily predictions for brighter satellites

Satellite Brightness Start Highest point End
(mag) Time Altitude Azimuth Time Altitude Azimuth Time Altitude Azimuth
H-2A R/B 3.0 16:26:09 10° S 16:29:57 78° WSW 16:33:50 10° NNW
Cosmos 1570 Rocket 4.4 16:25:59 10° SSW 16:31:17 70° WNW 16:36:34 10° NNE
Abrixas rocket 1.7 16:30:35 10° WNW 16:33:21 80° NNE 16:36:07 10° ESE
Cosmos 1500 Rocket 3.6 16:29:35 10° N 16:33:57 63° E 16:38:19 10° SSE
Meteor 2-2 Rocket 4.4 16:28:27 10° S 16:34:25 77° E 16:40:18 10° NNE
YAOGAN 6 2.6 16:31:11 10° SSE 16:34:49 65° ENE 16:38:26 10° N
CZ-4C R/B 3.2 16:35:55 10° N 16:39:33 82° WNW 16:43:10 10° SSW
NOSS 2-1 (C) 4.4 16:34:42 10° NW 16:39:53 81° NE 16:47:14 10° SE
Cosmos 405 Rocket 2.7 16:38:16 10° N 16:42:10 69° E 16:46:06 10° SSE
ADEOS Rocket 3.8 16:37:02 10° NNE 16:44:42 79° WNW 16:52:28 10° SSW
NOSS 2-1 (D) 4.4 16:40:09 10° NW 16:45:22 88° ENE 16:52:47 10° SE
Cosmos 405 3.7 16:41:56 10° SSW 16:45:22 56° WNW 16:48:49 10° N
YAOGAN 1 4.4 16:44:13 10° ENE 16:45:26 11° ENE 16:46:40 10° NE
Cosmos 389 Rocket 3.6 16:43:14 10° SSE 16:46:03 24° E 16:48:51 10° NE
Cosmos 1943 Rocket 3.7 16:43:53 10° N 16:47:11 16° NE 16:50:05 11° ENE
H-2A R/B 2.9 16:45:41 10° S 16:50:02 70° WSW 16:54:16 10° NNW
BREEZE-M DEB (TANK) 2.0 16:49:10 10° W 16:51:26 50° NNW 16:53:03 15° NE
SL-16 R/B 3.3 16:48:35 10° SSE 16:52:56 23° ESE 16:56:52 12° NE
Cosmos 1867 4.4 16:48:15 10° S 16:52:59 31° ESE 16:57:16 12° NE
USA 215 3.4 16:48:02 10° NE 16:54:31 61° SE 17:00:57 10° SW
CZ-2C R/B 4.2 16:51:57 10° ESE 16:55:27 19° ENE 16:58:52 10° NNE
Cosmos 1743 Rocket 3.9 16:51:49 10° NNW 16:56:17 74° W 17:00:42 10° S
COSMO-SKYMED 1 3.7 16:52:57 10° NE 16:56:33 25° E 17:00:06 10° SSE
Okean-O 4.0 16:53:50 10° ESE 16:56:44 17° ENE 16:59:38 10° NNE
Cosmos 2298 Rocket 4.2 16:52:46 10° NNW 16:58:06 83° WSW 17:03:25 10° SSE
Cosmos 2150 Rocket 4.0 16:54:20 10° NNW 16:59:31 86° WSW 17:04:39 10° SSE
AQUARIUS 4.1 16:56:13 10° SSE 17:00:42 80° ENE 17:05:12 10° N
Cosmos 1818 3.5 16:55:24 10° NNW 17:00:55 80° NE 17:06:22 10° SE
Cosmos 1606 3.0 16:59:53 10° SSE 17:03:36 46° E 17:07:21 10° NNE
Sich 1 3.2 17:01:08 10° N 17:05:27 51° ENE 17:09:41 10° SSE
BREEZE-M TANK 3.6 17:00:19 10° WNW 17:06:21 50° SSW 17:09:33 10° SE
Okean O Rocket 1.6 17:03:22 10° SSE 17:07:43 85° W 17:12:07 10° NNW
Cosmos 2333 Rocket 3.7 17:03:30 10° WSW 17:08:34 33° NW 17:13:41 10° N
Helios 1A Rocket 4.1 17:07:32 15° E 17:09:19 20° ENE 17:12:17 10° NNE
Cosmos 2366 rocket 4.5 17:04:29 10° N 17:10:07 35° ENE 17:15:40 10° SE
Nadezhda 1 Rocket 4.2 17:04:48 10° SSW 17:11:07 77° W 17:17:34 10° N
ISS -3.6 17:08:12 10° WSW 17:11:33 66° NNW 17:13:33 22° NE
COSMOS 2428 4.0 17:08:43 10° WSW 17:14:01 38° NW 17:19:20 10° NNE
Cosmos 1125 Rocket 3.5 17:09:06 10° NNW 17:14:20 89° ENE 17:19:32 10° SSE
Cosmos 1356 3.5 17:11:49 10° N 17:15:10 49° ENE 17:18:29 10° SSE
Feng Yun 1-1 Rocket 4.4 17:09:53 10° SSE 17:15:34 58° ENE 17:21:09 10° N
Cosmos 1805 Rocket 3.6 17:11:54 10° N 17:16:24 89° W 17:20:49 10° S
SAR-Lupe-4 4.2 17:15:58 20° NE 17:17:50 34° E 17:21:07 10° SSE
CZ-4B R/B 1.0 17:17:15 12° NNE 17:20:06 74° ESE 17:23:10 10° S
Cosmos 1151 Rocket 3.6 17:17:00 10° SSE 17:20:53 34° E 17:23:24 18° NE
Cosmos 2278 Rocket 2.8 17:15:55 10° NNW 17:21:31 60° WSW 17:27:04 10° S
Cosmos 1666 Rocket 3.7 17:18:18 10° N 17:22:36 50° ENE 17:26:53 10° SSE
IRS-1C Rocket 4.2 17:19:55 10° SE 17:25:01 53° ENE 17:30:09 10° N
Cosmos 1328 Rocket 4.1 17:22:53 10° SSE 17:26:46 34° E 17:28:37 24° NE
USA 267 3.4 17:21:46 15° ESE 17:27:00 55° NNE 17:33:19 10° NW
Lacrosse 5 rocket 2.2 17:24:48 10° S 17:27:49 24° SE 17:28:08 24° ESE
Cosmos 962 Rocket 4.5 17:22:05 10° N 17:28:25 86° E 17:34:38 10° S
FALCON 9 R/B 3.1 17:32:38 10° S 17:33:05 10° SSE 17:33:17 10° SSE
ERS-2 2.1 17:29:45 10° NNE 17:33:26 86° WNW 17:37:06 10° SSW
CZ-2D R/B 3.3 17:31:01 10° SSE 17:34:41 49° ENE 17:38:24 10° N
Cosmos 2341 Rocket 4.0 17:28:27 10° N 17:34:46 86° E 17:41:05 10° S
SAR-Lupe-1 4.1 17:33:32 30° NE 17:35:01 53° E 17:38:32 10° S
SL-24 R/B 4.0 17:32:45 21° NNE 17:35:10 49° E 17:38:49 10° S
Meteor 1-25 Rocket 4.2 17:29:56 10° N 17:35:28 58° ENE 17:41:02 10° SSE
CZ-4 R/B 1.8 17:38:23 36° NE 17:38:23 36° NE 17:41:41 10° N
Cosmos 2219 Rocket 4.3 17:35:29 10° W 17:39:50 22° NW 17:44:12 10° N
H-2A R/B 4.1 17:38:06 10° N 17:41:36 26° WNW 17:45:08 10° SW
TELKOM 3 3.7 17:39:09 10° WSW 17:41:32 50° NW 17:41:32 50° NW
CZ-3B R/B 3.2 17:40:38 10° S 17:42:22 16° SSE 17:42:22 16° SSE
BREEZE-M DEB (TANK) 2.1 17:41:09 10° WSW 17:43:13 54° WNW 17:43:13 54° WNW
SKYMED 2 3.4 17:40:45 12° NNE 17:44:49 80° ESE 17:49:10 10° S
USA 81 3.9 17:41:04 10° N 17:46:22 75° E 17:51:38 10° S
SL-24 DEB 4.3 17:43:31 10° NNE 17:48:12 53° E 17:52:48 10° S
CREW DRAGON DEMO-1 DEB 3.8 17:45:34 10° NW 17:47:43 35° NNW 17:47:43 35° NNW
Cosmos 2237 Rocket 3.0 17:43:23 10° SW 17:48:48 48° WNW 17:54:17 10° NNE
Cosmos 2285 Rocket 4.0 17:43:27 10° NNW 17:49:49 63° ENE 17:56:06 10° SSE
Cosmos 1939 Rocket 2.9 17:46:32 10° S 17:50:22 73° WSW 17:54:16 10° NNW
Cosmos 1633 Rocket 2.9 17:48:55 10° N 17:53:20 88° ENE 17:57:41 10° S
H-2A R/B 2.4 17:52:26 37° E 17:53:27 41° ENE 17:58:20 10° N
Cosmos 773 Rocket 4.0 17:52:39 10° S 17:57:47 57° ESE 17:59:15 42° NE
SL-8 Rocket 4.0 17:52:40 10° N 17:58:55 83° W 18:05:11 10° S
Cosmos 864 Rocket 4.4 17:52:36 10° N 17:58:58 78° E 18:05:14 10° SSE
CSL-04 Rocket 4.0 18:01:44 42° NE 18:01:44 42° NE 18:06:17 10° N
USA 281 3.1 17:54:44 10° SSE 18:01:17 80° ENE 18:07:53 10° NNW
Cosmos 2369 Rocket 3.1 17:58:04 10° N 18:02:09 31° NNE 18:02:09 31° NNE
Cosmos 2181 Rocket 4.1 17:57:50 10° S 18:04:17 79° W 18:10:42 10° N
Cosmos 783 Rocket 4.4 17:59:01 10° SSW 18:04:19 90° WNW 18:07:10 28° NNE
MOS 1 Rocket 3.6 18:03:47 32° NNE 18:06:17 62° E 18:11:39 10° S
Cosmos 1821 Rocket 4.4 18:06:43 10° N 18:11:29 41° NE 18:11:29 41° NE
Cosmos 1241 Rocket 4.5 18:08:31 10° NNW 18:15:08 70° NE 18:17:23 43° ESE
YAOGAN 1 2.7 18:21:24 68° NNW 18:21:24 68° NNW 18:25:12 10° NNW
SL-08 R/B 4.3 18:21:29 10° N 18:27:41 84° E 18:33:47 10° S
Cosmos 1470 Rocket 4.4 18:24:25 10° NNW 18:35:05 - S 18:27:22 42° NNW
Cosmos 2297 4.0 18:23:08 10° NNW 18:28:45 64° WSW 18:34:09 11° S
Cosmos 1943 Rocket 2.0 18:26:16 10° NNW 18:31:41 80° NE 18:31:41 80° NE
Meteor 1-14 Rocket 4.2 18:26:09 10° N 18:32:07 89° WSW 18:38:07 10° S
Cosmos 44 3.5 18:26:51 10° NW 18:32:10 80° WSW 18:32:40 72° S
COSMO-SKYMED 1 4.2 18:29:20 13° N 18:32:43 32° WNW 18:36:35 10° SW
Okean-O 3.3 18:28:29 10° S 18:32:48 53° W 18:37:10 10° NNW
CZ-2C R/B 3.5 18:29:50 10° S 18:34:57 58° W 18:39:50 10° NNW
ARGOS 4.2 18:38:30 33° N 18:38:30 33° N 18:41:24 10° N
Cosmos 1867 4.4 18:31:13 10° WSW 18:36:24 45° NW 18:37:58 36° N
SL-16 R/B 2.8 18:31:06 10° SW 18:36:37 55° WNW 18:38:47 35° N
USA 215 3.8 18:35:13 37° NNE 18:37:26 51° NNW 18:43:42 10° W
Helios 1A Rocket 4.3 18:43:47 35° WSW 18:44:14 36° W 18:47:59 10° NNW
ISS -0.6 18:45:58 10° WNW 18:46:31 13° WNW 18:46:31 13° WNW
Lacrosse 5 rocket 4.2 19:03:19 10° WSW 19:03:47 13° WSW 19:03:47 13° WSW
USA 267 3.7 19:09:08 49° SSW 19:10:02 53° SW 19:16:24 10° WNW
CZ-4 R/B 4.2 19:14:24 15° WNW 19:14:24 15° WNW 19:15:52 10° NW
ATLAS CENTAUR R/B 4.2 19:07:53 10° NW 19:25:20 59° WSW 19:27:27 48° SSW
H-2A R/B 3.9 19:33:03 27° W 19:33:03 27° W 19:37:25 10° NW
Cosmos 2369 Rocket 4.3 19:42:00 10° NW 19:43:59 21° NW 19:43:59 21° NW
